| time (UTC) | temp F | wind direction | speed MPH | gust MPH | rain 1hr in | rain 24hr in | rain mn in | humidity % | barometer mb |
| 20260506155030 | 49 | 335 | 1.0 | 7.0 | 0.00 | 1.05 | 0.70 | 90 | 1007.1 |
| 20260506154604 | 49 | 0 | 1.0 | 9.0 | 0.00 | 1.05 | 0.70 | 90 | 1007.2 |
| 20260506154031 | 49 | 31 | 3.0 | 9.0 | 0.00 | 1.05 | 0.70 | 90 | 1007.2 |
| 20260506153531 | 49 | 349 | 0.0 | 8.0 | 0.00 | 1.05 | 0.70 | 90 | 1007.2 |
| 20260506153037 | 49 | 34 | 1.0 | 9.0 | 0.01 | 1.05 | 0.70 | 90 | 1007.1 |
| 20260506152530 | 49 | 0 | 3.0 | 9.0 | 0.01 | 1.05 | 0.70 | 90 | 1007.1 |
| 20260506152030 | 49 | 0 | 2.0 | 7.0 | 0.01 | 1.05 | 0.70 | 90 | 1007.1 |
| 20260506151544 | 49 | 357 | 1.0 | 6.0 | 0.00 | 1.04 | 0.69 | 90 | 1007.2 |
| 20260506151031 | 49 | 0 | 1.0 | 5.0 | 0.00 | 1.04 | 0.69 | 90 | 1007.2 |
| 20260506150528 | 49 | 0 | 1.0 | 5.0 | 0.00 | 1.04 | 0.69 | 90 | 1007.1 |
| 20260506150041 | 49 | 16 | 1.0 | 6.0 | 0.00 | 1.04 | 0.69 | 90 | 1007.0 |
| 20260506145533 | 49 | 0 | 1.0 | 9.0 | 0.01 | 1.07 | 0.69 | 90 | 1006.9 |
| 20260506145030 | 49 | 349 | 3.0 | 9.0 | 0.01 | 1.07 | 0.69 | 90 | 1007.0 |
| 20260506144550 | 49 | 0 | 2.0 | 8.0 | 0.01 | 1.07 | 0.69 | 90 | 1006.9 |
| 20260506144031 | 49 | 347 | 2.0 | 8.0 | 0.02 | 1.07 | 0.69 | 90 | 1006.9 |
| 20260506143532 | 49 | 0 | 1.0 | 8.0 | 0.02 | 1.07 | 0.69 | 90 | 1007.0 |
| 20260506143041 | 49 | 0 | 2.0 | 8.0 | 0.01 | 1.07 | 0.68 | 90 | 1006.9 |
| 20260506142532 | 49 | 0 | 0.0 | 6.0 | 0.02 | 1.07 | 0.68 | 90 | 1006.9 |
| 20260506142030 | 49 | 0 | 0.0 | 6.0 | 0.02 | 1.07 | 0.68 | 90 | 1006.9 |
| 20260506141537 | 49 | 308 | 1.0 | 5.0 | 0.02 | 1.07 | 0.68 | 90 | 1006.9 |
| 20260506141032 | 49 | 256 | 0.0 | 5.0 | 0.02 | 1.07 | 0.68 | 90 | 1006.8 |
| 20260506140530 | 49 | 0 | 1.0 | 5.0 | 0.02 | 1.07 | 0.68 | 90 | 1006.8 |
| 20260506140040 | 49 | 31 | 1.0 | 5.0 | 0.02 | 1.07 | 0.68 | 90 | 1006.8 |
| 20260506135531 | 49 | 289 | 0.0 | 4.0 | 0.01 | 1.06 | 0.67 | 90 | 1006.8 |
| 20260506135031 | 49 | 289 | 0.0 | 5.0 | 0.01 | 1.06 | 0.67 | 90 | 1006.8 |
| 20260506134542 | 49 | 297 | 1.0 | 5.0 | 0.01 | 1.06 | 0.67 | 90 | 1006.8 |
| 20260506134031 | 49 | 303 | 1.0 | 6.0 | 0.00 | 1.05 | 0.66 | 90 | 1006.8 |
| 20260506133531 | 49 | 0 | 1.0 | 6.0 | 0.00 | 1.05 | 0.66 | 90 | 1006.8 |
| 20260506133056 | 49 | 21 | 1.0 | 4.0 | 0.00 | 1.05 | 0.66 | 90 | 1006.8 |
| 20260506132530 | 49 | 0 | 1.0 | 4.0 | 0.00 | 1.04 | 0.66 | 90 | 1006.9 |
| 20260506132035 | 48 | 279 | 1.0 | 4.0 | 0.00 | 1.04 | 0.66 | 90 | 1006.8 |
| 20260506131539 | 49 | 269 | 1.0 | 4.0 | 0.00 | 1.04 | 0.66 | 89 | 1006.8 |
| 20260506131032 | 49 | 0 | 0.0 | 5.0 | 0.00 | 1.04 | 0.66 | 89 | 1006.8 |
| 20260506130533 | 49 | 0 | 0.0 | 5.0 | 0.00 | 1.04 | 0.66 | 90 | 1006.8 |
| 20260506130040 | 49 | 0 | 1.0 | 5.0 | 0.00 | 1.04 | 0.66 | 90 | 1006.8 |
| 20260506125530 | 49 | 276 | 0.0 | 7.0 | 0.00 | 1.04 | 0.66 | 89 | 1006.7 |
| 20260506125030 | 49 | 307 | 1.0 | 7.0 | 0.00 | 1.04 | 0.66 | 90 | 1006.6 |
| 20260506124539 | 49 | 299 | 2.0 | 8.0 | 0.00 | 1.04 | 0.66 | 89 | 1006.7 |
| 20260506124031 | 49 | 0 | 1.0 | 8.0 | 0.00 | 1.04 | 0.66 | 90 | 1006.5 |
| 20260506123532 | 49 | 318 | 1.0 | 6.0 | 0.00 | 1.04 | 0.66 | 90 | 1006.6 |
| 20260506123044 | 49 | 12 | 1.0 | 7.0 | 0.00 | 1.04 | 0.66 | 90 | 1006.6 |
| 20260506122531 | 49 | 0 | 1.0 | 9.0 | 0.00 | 1.04 | 0.66 | 90 | 1006.5 |
| 20260506122031 | 49 | 330 | 1.0 | 9.0 | 0.00 | 1.04 | 0.66 | 89 | 1006.4 |
| 20260506121544 | 50 | 287 | 2.0 | 9.0 | 0.00 | 1.04 | 0.66 | 90 | 1006.4 |
| 20260506121031 | 50 | 21 | 1.0 | 6.0 | 0.00 | 1.04 | 0.66 | 90 | 1006.4 |
| 20260506120528 | 50 | 276 | 1.0 | 6.0 | 0.00 | 1.04 | 0.66 | 90 | 1006.3 |
| 20260506120043 | 50 | 318 | 1.0 | 7.0 | 0.00 | 1.04 | 0.66 | 90 | 1006.1 |
| 20260506115531 | 51 | 299 | 2.0 | 7.0 | 0.00 | 1.04 | 0.66 | 90 | 1006.1 |
| 20260506115030 | 51 | 359 | 3.0 | 7.0 | 0.00 | 1.04 | 0.66 | 90 | 1006.1 |
| 20260506114546 | 50 | 0 | 2.0 | 7.0 | 0.00 | 1.04 | 0.66 | 90 | 1006.0 |
| 20260506114032 | 50 | 30 | 2.0 | 7.0 | 0.00 | 1.04 | 0.66 | 91 | 1006.0 |
| 20260506113530 | 50 | 358 | 2.0 | 6.0 | 0.00 | 1.04 | 0.66 | 91 | 1006.1 |
| 20260506113046 | 50 | 25 | 2.0 | 7.0 | 0.00 | 1.04 | 0.66 | 90 | 1006.1 |
| 20260506112531 | 50 | 0 | 2.0 | 7.0 | 0.00 | 1.04 | 0.66 | 91 | 1006.1 |
| 20260506112030 | 50 | 331 | 2.0 | 7.0 | 0.00 | 1.04 | 0.66 | 91 | 1006.1 |
| 20260506111546 | 50 | 0 | 0.0 | 8.0 | 0.00 | 1.04 | 0.66 | 91 | 1006.1 |
| 20260506111031 | 50 | 19 | 2.0 | 11.0 | 0.00 | 1.04 | 0.66 | 91 | 1006.1 |
| 20260506110531 | 50 | 51 | 5.0 | 11.0 | 0.00 | 1.04 | 0.66 | 91 | 1006.1 |
| 20260506110046 | 49 | 354 | 3.0 | 9.0 | 0.00 | 1.04 | 0.66 | 90 | 1006.0 |
| 20260506105531 | 49 | 352 | 1.0 | 9.0 | 0.01 | 1.04 | 0.66 | 91 | 1006.1 |
| 20260506105029 | 49 | 345 | 2.0 | 9.0 | 0.01 | 1.04 | 0.66 | 91 | 1006.0 |
| 20260506104607 | 49 | 356 | 2.0 | 9.0 | 0.01 | 1.04 | 0.66 | 91 | 1006.0 |
| 20260506104033 | 49 | 344 | 4.0 | 9.0 | 0.01 | 1.04 | 0.66 | 91 | 1005.9 |
| 20260506103533 | 49 | 310 | 3.0 | 9.0 | 0.01 | 1.04 | 0.66 | 91 | 1006.0 |
| 20260506103042 | 49 | 304 | 3.0 | 7.0 | 0.01 | 1.04 | 0.66 | 91 | 1006.0 |
| 20260506102533 | 49 | 327 | 1.0 | 7.0 | 0.01 | 1.04 | 0.66 | 90 | 1005.9 |
| 20260506102031 | 50 | 0 | 3.0 | 9.0 | 0.00 | 1.03 | 0.65 | 91 | 1005.9 |
| 20260506101542 | 49 | 355 | 3.0 | 9.0 | 0.00 | 1.03 | 0.65 | 90 | 1005.8 |
| 20260506101032 | 49 | 10 | 4.0 | 9.0 | 0.00 | 1.03 | 0.65 | 91 | 1005.8 |
| 20260506100530 | 49 | 25 | 3.0 | 9.0 | 0.00 | 1.03 | 0.65 | 90 | 1005.8 |
| 20260506100046 | 49 | 335 | 3.0 | 10.0 | 0.00 | 1.03 | 0.65 | 90 | 1005.7 |
| 20260506095530 | 49 | 297 | 4.0 | 10.0 | 0.00 | 1.03 | 0.64 | 90 | 1005.7 |
| 20260506095028 | 49 | 270 | 2.0 | 8.0 | 0.00 | 1.03 | 0.64 | 90 | 1005.6 |
| 20260506094543 | 49 | 308 | 2.0 | 8.0 | 0.00 | 1.03 | 0.64 | 90 | 1005.7 |
| 20260506094029 | 50 | 9 | 2.0 | 8.0 | 0.00 | 1.03 | 0.64 | 90 | 1005.5 |
| 20260506093528 | 50 | 335 | 2.0 | 6.0 | 0.00 | 1.03 | 0.64 | 90 | 1005.5 |
| 20260506093043 | 50 | 347 | 1.0 | 7.0 | 0.00 | 1.03 | 0.64 | 90 | 1005.6 |
| 20260506092531 | 51 | 348 | 2.0 | 7.0 | 0.00 | 1.03 | 0.64 | 90 | 1005.5 |
| 20260506092027 | 52 | 0 | 1.0 | 6.0 | 0.00 | 1.03 | 0.64 | 90 | 1005.4 |
| 20260506091539 | 52 | 0 | 2.0 | 8.0 | 0.01 | 1.03 | 0.64 | 90 | 1005.4 |
| 20260506091035 | 52 | 6 | 3.0 | 8.0 | 0.01 | 1.03 | 0.64 | 91 | 1005.2 |
| 20260506090532 | 52 | 12 | 3.0 | 9.0 | 0.01 | 1.03 | 0.64 | 91 | 1005.2 |
| 20260506090044 | 52 | 43 | 4.0 | 9.0 | 0.02 | 1.03 | 0.64 | 91 | 1005.3 |
| 20260506085532 | 52 | 0 | 3.0 | 7.0 | 0.01 | 1.02 | 0.63 | 91 | 1005.2 |
| 20260506085030 | 52 | 41 | 3.0 | 9.0 | 0.01 | 1.02 | 0.63 | 91 | 1005.2 |
| 20260506084540 | 52 | 59 | 4.0 | 10.0 | 0.01 | 1.02 | 0.63 | 91 | 1005.1 |
| 20260506084033 | 52 | 37 | 5.0 | 10.0 | 0.01 | 1.02 | 0.63 | 91 | 1005.1 |
| 20260506083531 | 52 | 31 | 3.0 | 7.0 | 0.01 | 1.02 | 0.63 | 91 | 1005.1 |
| 20260506083048 | 52 | 14 | 2.0 | 5.0 | 0.02 | 1.02 | 0.63 | 91 | 1005.1 |
| 20260506082532 | 52 | 41 | 3.0 | 5.0 | 0.02 | 1.02 | 0.63 | 91 | 1005.0 |
| 20260506082030 | 52 | 18 | 2.0 | 5.0 | 0.02 | 1.02 | 0.63 | 91 | 1005.1 |
| 20260506081542 | 52 | 38 | 2.0 | 8.0 | 0.02 | 1.01 | 0.62 | 91 | 1005.0 |
| 20260506081032 | 52 | 21 | 3.0 | 8.0 | 0.03 | 1.01 | 0.62 | 91 | 1005.0 |
| 20260506080528 | 51 | 39 | 3.0 | 8.0 | 0.03 | 1.01 | 0.62 | 91 | 1004.9 |
| 20260506073041 | 52 | 13 | 4.0 | 8.0 | 0.04 | 1.00 | 0.61 | 91 | 1004.8 |
| 20260506072535 | 52 | 28 | 2.0 | 8.0 | 0.05 | 1.00 | 0.61 | 91 | 1004.7 |
| 20260506072030 | 51 | 337 | 3.0 | 7.0 | 0.05 | 1.00 | 0.61 | 91 | 1004.8 |
| 20260506071540 | 51 | 337 | 3.0 | 6.0 | 0.05 | 0.99 | 0.60 | 91 | 1004.8 |
| 20260506071028 | 52 | 342 | 0.0 | 5.0 | 0.04 | 0.98 | 0.59 | 91 | 1004.7 |
| 20260506070531 | 52 | 336 | 2.0 | 6.0 | 0.03 | 0.97 | 0.59 | 91 | 1004.6 |
| 20260506062027 | 52 | 11 | 2.0 | 5.0 | 0.03 | 0.94 | 0.55 | 91 | 1004.6 |
| 20260506061540 | 52 | 0 | 1.0 | 4.0 | 0.02 | 0.93 | 0.55 | 91 | 1004.4 |
| 20260506061029 | 52 | 10 | 1.0 | 4.0 | 0.03 | 0.93 | 0.55 | 91 | 1004.4 |
| 20260506060529 | 52 | 29 | 2.0 | 5.0 | 0.03 | 0.93 | 0.55 | 91 | 1004.3 |
| 20260506051027 | 51 | 44 | 2.0 | 5.0 | 0.06 | 0.90 | 0.51 | 91 | 1004.4 |
| 20260506050527 | 52 | 355 | 1.0 | 4.0 | 0.05 | 0.89 | 0.51 | 91 | 1004.5 |
| 20260506045030 | 52 | 66 | 0.0 | 3.0 | 0.06 | 0.88 | 0.50 | 91 | 1004.5 |
| 20260506044538 | 51 | 66 | 1.0 | 4.0 | 0.05 | 0.88 | 0.49 | 91 | 1004.4 |
| 20260506044032 | 51 | 55 | 1.0 | 4.0 | 0.04 | 0.87 | 0.48 | 91 | 1004.3 |
| 20260506043532 | 51 | 0 | 1.0 | 4.0 | 0.05 | 0.87 | 0.48 | 91 | 1004.4 |
| 20260506043052 | 51 | 0 | 0.0 | 3.0 | 0.05 | 0.86 | 0.48 | 91 | 1004.4 |
| 20260506042532 | 51 | 0 | 0.0 | 5.0 | 0.04 | 0.85 | 0.47 | 91 | 1004.4 |
| 20260506042030 | 51 | 30 | 1.0 | 9.0 | 0.04 | 0.85 | 0.46 | 90 | 1004.4 |
| 20260506041553 | 51 | 60 | 1.0 | 9.0 | 0.03 | 0.84 | 0.45 | 91 | 1004.3 |
| 20260506041028 | 51 | 64 | 3.0 | 9.0 | 0.03 | 0.84 | 0.45 | 91 | 1004.3 |
| 20260506040530 | 51 | 0 | 2.0 | 9.0 | 0.03 | 0.84 | 0.45 | 91 | 1004.3 |
| 20260506040049 | 51 | 20 | 3.0 | 9.0 | 0.03 | 0.83 | 0.44 | 90 | 1004.3 |
| 20260506035531 | 51 | 35 | 2.0 | 7.0 | 0.03 | 0.83 | 0.44 | 91 | 1004.3 |
| 20260506035031 | 51 | 31 | 3.0 | 7.0 | 0.02 | 0.82 | 0.44 | 91 | 1004.4 |
| 20260506034540 | 51 | 30 | 2.0 | 6.0 | 0.02 | 0.82 | 0.44 | 91 | 1004.3 |
| 20260506034027 | 52 | 13 | 2.0 | 6.0 | 0.03 | 0.82 | 0.44 | 91 | 1004.4 |
| 20260506033530 | 52 | 0 | 1.0 | 5.0 | 0.02 | 0.81 | 0.43 | 91 | 1004.5 |
| 20260506033036 | 52 | 32 | 1.0 | 4.0 | 0.02 | 0.81 | 0.42 | 91 | 1004.6 |
| 20260506032530 | 52 | 26 | 1.0 | 7.0 | 0.02 | 0.81 | 0.42 | 91 | 1004.6 |
| 20260506032031 | 52 | 0 | 2.0 | 7.0 | 0.02 | 0.80 | 0.41 | 91 | 1004.6 |
| 20260506031541 | 52 | 331 | 0.0 | 3.0 | 0.02 | 0.80 | 0.41 | 91 | 1004.7 |
| 20260506031031 | 52 | 331 | 0.0 | 3.0 | 0.03 | 0.80 | 0.41 | 91 | 1004.7 |
| 20260506030527 | 52 | 60 | 0.0 | 3.0 | 0.03 | 0.80 | 0.41 | 91 | 1004.8 |
| 20260506030042 | 52 | 41 | 1.0 | 3.0 | 0.04 | 0.80 | 0.41 | 91 | 1004.8 |
| 20260506025530 | 52 | 0 | 0.0 | 5.0 | 0.04 | 0.80 | 0.41 | 91 | 1004.8 |
| 20260506025033 | 52 | 37 | 1.0 | 5.0 | 0.05 | 0.80 | 0.41 | 91 | 1004.8 |
| 20260506024544 | 52 | 32 | 1.0 | 5.0 | 0.05 | 0.79 | 0.40 | 91 | 1004.8 |
| 20260506024031 | 52 | 62 | 2.0 | 5.0 | 0.06 | 0.79 | 0.40 | 91 | 1004.9 |
| 20260506023529 | 52 | 41 | 2.0 | 4.0 | 0.06 | 0.79 | 0.40 | 91 | 1004.9 |
| 20260506023040 | 52 | 62 | 1.0 | 4.0 | 0.06 | 0.78 | 0.40 | 91 | 1005.0 |
| 20260506022530 | 52 | 0 | 1.0 | 7.0 | 0.07 | 0.78 | 0.40 | 91 | 1005.0 |
| 20260506022030 | 52 | 70 | 2.0 | 7.0 | 0.07 | 0.77 | 0.39 | 91 | 1005.0 |
| 20260506021553 | 52 | 44 | 2.0 | 5.0 | 0.07 | 0.77 | 0.39 | 91 | 1005.0 |
| 20260506021031 | 52 | 0 | 1.0 | 4.0 | 0.07 | 0.77 | 0.38 | 91 | 1005.1 |
| 20260506020531 | 52 | 0 | 1.0 | 4.0 | 0.07 | 0.76 | 0.37 | 91 | 1005.1 |
| 20260506020038 | 52 | 32 | 2.0 | 4.0 | 0.07 | 0.75 | 0.37 | 91 | 1005.2 |
| 20260506015531 | 52 | 45 | 2.0 | 7.0 | 0.08 | 0.75 | 0.37 | 91 | 1005.2 |
| 20260506015028 | 52 | 41 | 1.0 | 7.0 | 0.08 | 0.74 | 0.36 | 91 | 1005.2 |
| 20260506014539 | 52 | 45 | 2.0 | 6.0 | 0.08 | 0.74 | 0.35 | 91 | 1005.1 |
| 20260506014027 | 52 | 35 | 1.0 | 5.0 | 0.08 | 0.73 | 0.34 | 91 | 1005.3 |
| 20260506013527 | 52 | 66 | 2.0 | 6.0 | 0.09 | 0.73 | 0.34 | 91 | 1005.3 |
| 20260506013041 | 52 | 70 | 2.0 | 6.0 | 0.09 | 0.72 | 0.33 | 91 | 1005.3 |
| 20260506012527 | 52 | 58 | 2.0 | 6.0 | 0.09 | 0.71 | 0.33 | 91 | 1005.3 |
| 20260506012028 | 52 | 58 | 0.0 | 4.0 | 0.08 | 0.70 | 0.32 | 91 | 1005.4 |
| 20260506011549 | 52 | 65 | 1.0 | 6.0 | 0.08 | 0.70 | 0.31 | 91 | 1005.5 |
| 20260506011032 | 52 | 0 | 1.0 | 8.0 | 0.08 | 0.69 | 0.30 | 91 | 1005.4 |
| 20260506010530 | 52 | 56 | 2.0 | 8.0 | 0.08 | 0.68 | 0.29 | 91 | 1005.4 |
| 20260506010048 | 52 | 0 | 1.0 | 4.0 | 0.08 | 0.67 | 0.29 | 91 | 1005.5 |
| 20260506005531 | 52 | 70 | 1.0 | 7.0 | 0.08 | 0.66 | 0.28 | 91 | 1005.6 |
| 20260506005031 | 52 | 54 | 2.0 | 7.0 | 0.09 | 0.66 | 0.27 | 91 | 1005.6 |
| 20260506004538 | 52 | 64 | 2.0 | 7.0 | 0.09 | 0.65 | 0.26 | 91 | 1005.7 |
| 20260506004029 | 52 | 58 | 3.0 | 6.0 | 0.10 | 0.64 | 0.25 | 91 | 1005.7 |
| 20260506003528 | 52 | 36 | 2.0 | 9.0 | 0.11 | 0.63 | 0.25 | 91 | 1005.7 |
| 20260506003040 | 53 | 49 | 2.0 | 9.0 | 0.11 | 0.62 | 0.24 | 91 | 1005.8 |
| 20260506002530 | 53 | 62 | 3.0 | 9.0 | 0.11 | 0.62 | 0.23 | 91 | 1005.8 |
| 20260506002028 | 53 | 45 | 2.0 | 7.0 | 0.11 | 0.61 | 0.22 | 91 | 1005.9 |
| 20260506001543 | 53 | 49 | 1.0 | 4.0 | 0.11 | 0.61 | 0.22 | 91 | 1006.0 |
| 20260506001028 | 53 | 59 | 1.0 | 4.0 | 0.11 | 0.60 | 0.22 | 91 | 1006.0 |
| 20260506000527 | 53 | 24 | 1.0 | 4.0 | 0.11 | 0.59 | 0.21 | 91 | 1006.1 |
| 20260506000042 | 53 | 53 | 0.0 | 3.0 | 0.11 | 0.59 | 0.20 | 90 | 1006.1 |
| 20260505235530 | 53 | 53 | 1.0 | 3.0 | 0.11 | 0.59 | 0.18 | 91 | 1006.2 |
| 20260505235031 | 54 | 24 | 1.0 | 3.0 | 0.11 | 0.58 | 0.18 | 91 | 1006.2 |
| 20260505234604 | 54 | 6 | 0.0 | 2.0 | 0.10 | 0.56 | 0.16 | 91 | 1006.3 |
| 20260505234031 | 54 | 72 | 0.0 | 3.0 | 0.10 | 0.55 | 0.15 | 91 | 1006.3 |
| 20260505233527 | 54 | 0 | 0.0 | 3.0 | 0.09 | 0.54 | 0.14 | 91 | 1006.3 |
| 20260505233042 | 54 | 0 | 1.0 | 3.0 | 0.09 | 0.53 | 0.13 | 90 | 1006.4 |
| 20260505232529 | 54 | 0 | 0.0 | 3.0 | 0.08 | 0.52 | 0.12 | 90 | 1006.4 |
| 20260505232027 | 54 | 0 | 1.0 | 3.0 | 0.08 | 0.51 | 0.11 | 90 | 1006.4 |
| 20260505231544 | 54 | 45 | 0.0 | 3.0 | 0.08 | 0.51 | 0.11 | 90 | 1006.4 |
| 20260505231027 | 54 | 49 | 0.0 | 3.0 | 0.08 | 0.50 | 0.10 | 90 | 1006.5 |
| 20260505230527 | 54 | 0 | 1.0 | 3.0 | 0.08 | 0.49 | 0.09 | 90 | 1006.4 |
| 20260505230047 | 54 | 49 | 0.0 | 3.0 | 0.08 | 0.48 | 0.08 | 90 | 1006.5 |
| 20260505225529 | 54 | 0 | 0.0 | 3.0 | 0.09 | 0.48 | 0.07 | 90 | 1006.5 |
| 20260505225027 | 54 | 49 | 1.0 | 3.0 | 0.11 | 0.48 | 0.07 | 90 | 1006.5 |
| 20260505224542 | 54 | 0 | 0.0 | 3.0 | 0.12 | 0.47 | 0.06 | 90 | 1006.5 |
| 20260505224027 | 54 | 356 | 0.0 | 2.0 | 0.13 | 0.46 | 0.05 | 90 | 1006.7 |
| 20260505223530 | 54 | 0 | 0.0 | 2.0 | 0.13 | 0.45 | 0.04 | 90 | 1006.7 |
| 20260505223102 | 54 | 354 | 0.0 | 4.0 | 0.13 | 0.44 | 0.03 | 90 | 1006.7 |
| 20260505222527 | 54 | 353 | 1.0 | 4.0 | 0.14 | 0.44 | 0.03 | 90 | 1006.7 |
| 20260505222030 | 54 | 0 | 0.0 | 4.0 | 0.14 | 0.44 | 0.03 | 90 | 1006.7 |
| 20260505221541 | 54 | 331 | 2.0 | 4.0 | 0.14 | 0.43 | 0.02 | 90 | 1006.7 |
| 20260505221027 | 54 | 19 | 0.0 | 3.0 | 0.15 | 0.42 | 0.01 | 90 | 1006.7 |
| 20260505220528 | 54 | 25 | 1.0 | 4.0 | 0.14 | 0.41 | 0.00 | 90 | 1006.7 |
| 20260505220048 | 54 | 0 | 1.0 | 4.0 | 0.14 | 0.40 | 0.00 | 90 | 1006.8 |
| 20260505215529 | 54 | 14 | 1.0 | 4.0 | 0.13 | 0.40 | 0.39 | 90 | 1006.8 |
| 20260505215031 | 54 | 0 | 0.0 | 2.0 | 0.11 | 0.37 | 0.37 | 90 | 1006.9 |
| 20260505214553 | 54 | 0 | 0.0 | 5.0 | 0.09 | 0.34 | 0.33 | 90 | 1007.0 |
| 20260505214033 | 54 | 65 | 0.0 | 5.0 | 0.08 | 0.33 | 0.33 | 90 | 1006.9 |
| 20260505213528 | 54 | 18 | 2.0 | 6.0 | 0.08 | 0.33 | 0.32 | 90 | 1006.9 |
| 20260505213043 | 54 | 9 | 3.0 | 6.0 | 0.08 | 0.32 | 0.31 | 90 | 1006.9 |
| 20260505212530 | 54 | 17 | 2.0 | 8.0 | 0.07 | 0.31 | 0.30 | 90 | 1007.0 |
| 20260505212031 | 54 | 33 | 2.0 | 8.0 | 0.07 | 0.30 | 0.29 | 89 | 1006.9 |
| 20260505211545 | 54 | 22 | 2.0 | 6.0 | 0.07 | 0.29 | 0.28 | 89 | 1007.1 |
| 20260505211028 | 54 | 34 | 2.0 | 5.0 | 0.05 | 0.27 | 0.26 | 89 | 1007.1 |
| 20260505210532 | 54 | 36 | 2.0 | 5.0 | 0.06 | 0.27 | 0.26 | 89 | 1007.2 |
| 20260505210045 | 54 | 12 | 2.0 | 5.0 | 0.05 | 0.26 | 0.25 | 89 | 1007.1 |
| 20260505205528 | 55 | 49 | 0.0 | 5.0 | 0.05 | 0.27 | 0.25 | 89 | 1007.2 |
| 20260505205028 | 54 | 320 | 1.0 | 4.0 | 0.05 | 0.26 | 0.25 | 89 | 1007.2 |
| 20260505204542 | 55 | 337 | 1.0 | 4.0 | 0.04 | 0.25 | 0.24 | 89 | 1007.2 |
| 20260505204028 | 55 | 27 | 2.0 | 4.0 | 0.04 | 0.25 | 0.23 | 89 | 1007.2 |
| 20260505203528 | 55 | 64 | 2.0 | 5.0 | 0.05 | 0.25 | 0.23 | 89 | 1007.2 |
| 20260505203055 | 55 | 356 | 2.0 | 5.0 | 0.05 | 0.24 | 0.22 | 89 | 1007.2 |
| 20260505202532 | 55 | 40 | 2.0 | 5.0 | 0.06 | 0.24 | 0.22 | 89 | 1007.2 |
| 20260505202027 | 55 | 23 | 2.0 | 5.0 | 0.09 | 0.23 | 0.22 | 89 | 1007.1 |
| 20260505201545 | 55 | 18 | 2.0 | 6.0 | 0.11 | 0.22 | 0.21 | 88 | 1007.1 |
| 20260505201028 | 55 | 19 | 2.0 | 6.0 | 0.11 | 0.22 | 0.21 | 88 | 1007.2 |
| 20260505200531 | 55 | 16 | 2.0 | 6.0 | 0.11 | 0.22 | 0.20 | 89 | 1007.1 |
| 20260505200039 | 55 | 13 | 2.0 | 6.0 | 0.13 | 0.22 | 0.20 | 88 | 1007.1 |
| 20260505195530 | 55 | 10 | 1.0 | 4.0 | 0.13 | 0.33 | 0.20 | 88 | 1007.2 |
| 20260505195029 | 55 | 45 | 2.0 | 4.0 | 0.13 | 0.32 | 0.19 | 88 | 1007.2 |
| 20260505194544 | 55 | 29 | 2.0 | 6.0 | 0.14 | 0.32 | 0.19 | 88 | 1007.3 |
| 20260505194031 | 55 | 24 | 1.0 | 6.0 | 0.13 | 0.31 | 0.18 | 88 | 1007.3 |
| 20260505193532 | 55 | 46 | 2.0 | 5.0 | 0.12 | 0.30 | 0.18 | 87 | 1007.2 |
| 20260505193039 | 55 | 43 | 2.0 | 6.0 | 0.11 | 0.29 | 0.17 | 87 | 1007.3 |
| 20260505192527 | 55 | 35 | 1.0 | 6.0 | 0.11 | 0.29 | 0.16 | 87 | 1007.3 |
| 20260505192030 | 55 | 59 | 2.0 | 5.0 | 0.06 | 0.24 | 0.11 | 87 | 1007.3 |
| 20260505191545 | 55 | 64 | 1.0 | 5.0 | 0.04 | 0.22 | 0.10 | 86 | 1007.3 |
| 20260505191030 | 56 | 43 | 2.0 | 5.0 | 0.03 | 0.22 | 0.09 | 86 | 1007.3 |
| 20260505190529 | 56 | 62 | 2.0 | 5.0 | 0.02 | 0.20 | 0.07 | 86 | 1007.4 |
| 20260505190046 | 56 | 56 | 2.0 | 7.0 | 0.01 | 0.19 | 0.07 | 86 | 1007.3 |
| 20260505185528 | 56 | 61 | 2.0 | 7.0 | 0.01 | 0.48 | 0.07 | 86 | 1007.3 |
| 20260505185032 | 56 | 51 | 2.0 | 5.0 | 0.00 | 0.48 | 0.06 | 86 | 1007.3 |
| 20260505184548 | 56 | 67 | 2.0 | 5.0 | 0.00 | 0.47 | 0.05 | 85 | 1007.4 |
| 20260505184032 | 56 | 63 | 1.0 | 4.0 | 0.00 | 0.47 | 0.05 | 85 | 1007.4 |
| 20260505183528 | 56 | 27 | 1.0 | 5.0 | 0.00 | 0.47 | 0.05 | 85 | 1007.4 |
| 20260505183045 | 56 | 38 | 1.0 | 6.0 | 0.00 | 0.47 | 0.05 | 85 | 1007.4 |
| 20260505182533 | 56 | 0 | 3.0 | 6.0 | 0.00 | 0.47 | 0.05 | 85 | 1007.3 |
| 20260505182028 | 56 | 14 | 3.0 | 9.0 | 0.00 | 0.47 | 0.05 | 84 | 1007.4 |
| 20260505181538 | 56 | 46 | 3.0 | 9.0 | 0.00 | 0.47 | 0.05 | 84 | 1007.3 |
| 20260505181031 | 56 | 41 | 3.0 | 8.0 | 0.00 | 0.47 | 0.05 | 84 | 1007.3 |
| 20260505180534 | 57 | 51 | 4.0 | 8.0 | 0.00 | 0.47 | 0.05 | 84 | 1007.3 |
| 20260505180045 | 57 | 27 | 4.0 | 8.0 | 0.00 | 0.47 | 0.05 | 84 | 1007.3 |
| 20260505175531 | 57 | 23 | 3.0 | 8.0 | 0.00 | 0.73 | 0.05 | 84 | 1007.3 |
| 20260505175028 | 57 | 14 | 2.0 | 7.0 | 0.00 | 0.73 | 0.05 | 84 | 1007.4 |
| 20260505174542 | 57 | 25 | 2.0 | 7.0 | 0.00 | 0.73 | 0.05 | 84 | 1007.3 |
| 20260505174031 | 57 | 41 | 1.0 | 7.0 | 0.00 | 0.73 | 0.05 | 84 | 1007.3 |
| 20260505173531 | 57 | 47 | 3.0 | 7.0 | 0.00 | 0.73 | 0.05 | 84 | 1007.3 |
| 20260505173042 | 57 | 33 | 3.0 | 7.0 | 0.00 | 0.73 | 0.05 | 84 | 1007.3 |
| 20260505172530 | 57 | 6 | 3.0 | 8.0 | 0.00 | 0.73 | 0.05 | 84 | 1007.4 |
| 20260505172031 | 57 | 45 | 3.0 | 8.0 | 0.00 | 0.73 | 0.05 | 84 | 1007.3 |
| 20260505171540 | 57 | 47 | 4.0 | 8.0 | 0.00 | 0.73 | 0.05 | 84 | 1007.3 |
| 20260505171027 | 58 | 67 | 3.0 | 8.0 | 0.00 | 0.73 | 0.05 | 84 | 1007.3 |
| 20260505170528 | 58 | 6 | 3.0 | 7.0 | 0.00 | 0.73 | 0.05 | 84 | 1007.3 |
| 20260505170038 | 58 | 38 | 3.0 | 7.0 | 0.00 | 0.73 | 0.05 | 84 | 1007.3 |
| 20260505165530 | 58 | 67 | 3.0 | 7.0 | 0.00 | 0.73 | 0.05 | 84 | 1007.3 |
| 20260505165027 | 58 | 17 | 3.0 | 8.0 | 0.00 | 0.73 | 0.05 | 84 | 1007.3 |
| 20260505164543 | 58 | 25 | 4.0 | 8.0 | 0.00 | 0.73 | 0.05 | 84 | 1007.3 |
| 20260505164030 | 58 | 33 | 4.0 | 8.0 | 0.00 | 0.73 | 0.05 | 84 | 1007.3 |
| 20260505163531 | 58 | 13 | 3.0 | 8.0 | 0.00 | 0.73 | 0.05 | 84 | 1007.3 |
| 20260505163041 | 58 | 36 | 4.0 | 8.0 | 0.00 | 0.73 | 0.05 | 84 | 1007.4 |
| 20260505162534 | 58 | 353 | 5.0 | 8.0 | 0.00 | 0.73 | 0.05 | 84 | 1007.4 |
| 20260505162032 | 58 | 358 | 2.0 | 8.0 | 0.00 | 0.73 | 0.05 | 84 | 1007.4 |
| 20260505161542 | 58 | 37 | 5.0 | 8.0 | 0.00 | 0.73 | 0.05 | 84 | 1007.5 |
| 20260505161034 | 59 | 15 | 3.0 | 7.0 | 0.00 | 0.73 | 0.05 | 84 | 1007.5 |
| 20260505160532 | 59 | 343 | 2.0 | 10.0 | 0.00 | 0.73 | 0.05 | 84 | 1007.5 |